Regional Weather Roundup
Issued by NWS

Home | Current Version | Previous Version | Text Only | Print | Product List | Glossary On
Versions: 1 2 3 4 5 6 7 8 9 10 11 12 13 14 15 16 17 18 19 20 21 22 23 24 25 26 27 28 29 30 31 32 33 34 35 36 37 38 39 40 41 42 43 44 45 46 47 48 49 50
000
ASHW40 PHFO 211612
RWRHI

WEATHER ROUNDUP FOR HAWAII
NATIONAL WEATHER SERVICE HONOLULU HI
600 AM HST MON AUG 21 2017

THIS IS AN AUTOMATED REPORT THAT HAS NOT BEEN QUALITY CONTROLLED.

NOTE..."FAIR" INDICATES FEW OR NO CLOUDS BELOW 12,000 FEET WITH NO
SIGNIFICANT WEATHER AND/OR OBSTRUCTIONS TO VISIBILITY.

* - THESE SITES REPORT LIMITED FIELDS
# - BUOY DATA PROVIDED BY PACIFIC ISLANDS OCEAN OBSERVING SYSTEM.

HIZ001>004-211700-
KAUAI-NIIHAU-

CITY           SKY/WX    TMP DP  RH WIND       PRES   REMARKS
LIHUE APT      MOCLDY    80  75  84 NE9       30.01R
PORT ALLEN*      N/A     73 N/A N/A NE5         N/A
POIPU*           N/A     77 N/A N/A NE5         N/A
PRINCEVILLE*     N/A     73 N/A N/A S2          N/A
KOKOLE POINT*  NOT AVBL
MOLOAA DAIRY*    N/A     75  73  94 SE2         N/A
WAIMEA HTS*    NOT AVBL
PUU OPAE*      NOT AVBL
PUU LUA*       NOT AVBL
MAKAHA RIDGE*  NOT AVBL
$$

HIZ005>011-211700-
OAHU-

CITY           SKY/WX    TMP DP  RH WIND       PRES   REMARKS
HONOLULU       PTCLDY    74  71  91 NE7       29.97R
KALAELOA       PTCLDY    73  69  87 CALM      29.99R
KANEOHE MCB    NOT AVBL
WHEELER FIELD  CLOUDY    75  71  88 CALM      29.99R
BELLOWS*       NOT AVBL
KAHUKU*        NOT AVBL
WHEELER*       NOT AVBL
WAIANAE HARBOR NOT AVBL
DILLINGHAM*      N/A     88  84  89 CALM        N/A  HX 112
KAHUKU TRN*      N/A     84  84 100 W3G13       N/A  HX 104
KAWAILOA*        N/A     72  70  94 E3G12       N/A
KII*             N/A     79  75  89 E13G20      N/A
MAKUA RANGE*     N/A     75  68  78 NW3         N/A
OAHU FOREST NW NOT AVBL
SCHOFIELD BRK*   N/A     75  72  88 MISG        N/A
SCHOFIELD S*   NOT AVBL
WAIANAE VLY*   NOT AVBL
KUAOKALA*      NOT AVBL
HONOULIUULI*   NOT AVBL
MOKUOLOE IS*   NOT AVBL
PALEHUA*       NOT AVBL
WAIAWA PHB*    NOT AVBL
$$

HIZ012>013-211700-
MOLOKAI-

CITY           SKY/WX    TMP DP  RH WIND       PRES   REMARKS
MOLOKAI AIRPT  CLOUDY    77  72  84 NE6       29.98R
KALAUPAPA      NOT AVBL
MAKAPULAPAI*   NOT AVBL
MOLOKAI 1*     NOT AVBL
PUU ALII*      NOT AVBL
$$

HIZ016-211700-
KAHOOLAWE-

CITY           SKY/WX    TMP DP  RH WIND       PRES   REMARKS
KAHOOLAWE*     NOT AVBL
HAKIOAWA*      NOT AVBL
HONOKANAIA*      N/A     79  70  73 NE9G22      N/A
KANELOA*         N/A     75  70  83 E16G22    30.03S
KEALIALALO*    NOT AVBL
LUA MAKIKA*    NOT AVBL
$$

HIZ014>015-211700-
LANAI-

CITY           SKY/WX    TMP DP  RH WIND       PRES   REMARKS
LANAI CITY     FAIR      72  70  93 SE10      30.03S
LANAI 1*       NOT AVBL
$$

HIZ017>028-211700-
MAUI-

CITY           SKY/WX    TMP DP  RH WIND       PRES   REMARKS
KAHULUI        CLOUDY    77  72  84 NE10      29.97R
KAPALUA-W MAUI MOCLDY    77  68  73 NE6       29.98
HANA AIRPORT   CLOUDY    75  73  94 CALM      30.02S
HANA*          NOT AVBL
HALEAKALA SUMM NOT AVBL
MAALAEA BAY*   NOT AVBL
HALEAKALA*     NOT AVBL
KAUPO GAP*     NOT AVBL
KULA 1*          N/A     54  47  77 NE2G10      N/A
$$

HIZ023>026-211700-
BIG ISLAND OF HAWAII COAST AND LOWER SLOPES-

CITY           SKY/WX    TMP DP  RH WIND       PRES   REMARKS
KAILUA KONA    CLEAR     78  66  66 SE5       29.94R
HILO           PTCLDY    70  66  87 SW6       29.99R
HONOKAA*         N/A     70 N/A N/A VRB1        N/A
KAWAIHAE MWT*    N/A     79 N/A N/A SE1         N/A
KAWAIHAE*      NOT AVBL
SOUTH POINT*     N/A     72 N/A N/A N13G18      N/A
UPOLU AIRPORT* NOT AVBL
KAMUELA*         N/A     66  64  94 NE15      30.08S
HAKALAU*         N/A     50  49  96 SW3         N/A
KALOKO-HONOKO* NOT AVBL
PALI 2*          N/A     66  63  88 S13G24      N/A
KEALAKOMO*       N/A     79  68  69 VRB12G23    N/A
KAUPULEHU*     NOT AVBL
KAPAPALA*        N/A     63  63 100 N5          N/A
LOWER KAHUKU*  NOT AVBL
PUHE CS*       NOT AVBL
PUHO CS*       NOT AVBL
PTA KEAMUKU*     N/A     64  54  68 NE5         N/A
WAIKOLOA*      NOT AVBL
$$

HIZ027>028-211700-
BIG ISLAND OF HAWAII INTERIOR AND SUMMMITS-

CITY           SKY/WX    TMP DP  RH WIND       PRES   REMARKS
BRADSHAW FIELD PTCLDY    51  46  83 SE5       30.33R
MK VISITOR CEN   N/A     48  37  66 VRB6        N/A
MAUNA KEA*       N/A     32  25  74 E6          N/A  WCI  26
MAUNA LOA*       N/A    N/A N/A N/A MISG        N/A
MAUNA LOA 1*   NOT AVBL
PTA KIPUKA*      N/A     70  66  88 N3          N/A
PTA RANGE 17*    N/A     77  72  83 W8          N/A
PTA WEST*        N/A     81  72  74 SE9         N/A
NENE CABIN*    NOT AVBL
AHUMOA*        NOT AVBL
PTA PORTABLE*  NOT AVBL
PUU MALI*        N/A     57  43  58 S7          N/A
$$

HIC003-211700-
NORTHWEST ISLANDS-

CITY           SKY/WX    TMP DP  RH WIND       PRES   REMARKS
MIDWAY ISLAND  PTCLDY    79  73  83 E13       30.18S
MIDWAY NOS*    NOT AVBL
FRENCH FRIGATE NOT AVBL
$$

PHZ110>124-180-211700-
BUOY REPORTS

STATION/POSITION TIME  TEMP    WIND        PRES    WAVE   SWELL
                       AIR SEA DIR/SP/G            HT/PER HT/DIR
                 (UTC) (F)     (DEG/KT/KT) (MB)    (FT/S) (FT/D)
BUOY 51001       1550   80 81   40/ 10/ 12 1016.9R   5/ 6   5/ 90
BUOY 51101       1550   79 81   50/ 12/ 14 1017.3R   5/ 6   3/ 80
BUOY 51100       NOT AVBL
BUOY 51002       1550   80 80   60/ 17/ 23 1012.9R   5/ 7   3/130
BUOY 51003       1550   81 82   40/ 14/ 16 1014.1R   4/11   3/110
BUOY 51004       1550      80   70/ 16/ 19 1013.1R   6/ 7   3/ 80
WAIMEA BAY#      1502      78                N/A     3/ 6
MOKAPU POINT#    1534      80                N/A     5/ 6   2/130
LANAI#           NOT AVBL
BARBERS PT 2#    NOT AVBL
PAUWELA#         1539      80                N/A     4/ 7   2
HILO#            1557      80                N/A     5/ 8   2/120
KANEOHE BAY#     NOT AVBL
KANEOHE BAY 2#   NOT AVBL
HANALEI#         1552      81                N/A     4/ 6
KAHULUI HARBOR   1542   78 82   60/  7/ 11 1014.9R
HONOLULU HARBOR  1548   80 81   20/  1/  2 1015.8R
PEARL HARBOR#    1530      81                N/A     2/ 6   2/160
KILO NALU        NOT AVBL
HILO HARBOR      1542   73 79  220/  3/  4 1015.3R
MOKUOLOE         1536   79 82  100/  4/  7 1015.4R
NAWILIWILI       1548   77     310/  3/  4 1015.8R
WHOTS BUOY       NOT AVBL
BUOY 51028       NOT AVBL
$$

......................KEY........................................
  SKY/WX - SKY CONDITIONS/PRESENT WEATHER
  TMP    - TEMPERATURE IN FAHRENHEIT
  DWPT   - DEWPOINT IN FAHRENHEIT
  RH     - RELATIVE HUMIDITY IN PERCENT
  WIND   - DIRECTION AND SPEED /MPH FOR ISLANDS...KTS FOR BUOYS/
  PRES   - MEAN SEA LEVEL PRESSURE IN INCHES OF HG
  VSB    - VISIBILITY IN MILES
  HX     - HEAT INDEX
  WCI    - WIND CHILL INDEX
  VRB    - VARIABLE WIND DIRECTION
  N/A    - NOT AVAILABLE




USA.gov is the U.S. government's official web portal to all federal, state and local government web resources and services.